Terminal Aerodrome Forecast
Issued by NWS Duluth, MN

Home | Current Version | Previous Version | Text Only | Print | Product List | Glossary On
Versions: 1 2 3 4 5 6 7 8 9 10 11 12 13 14 15 16 17 18 19 20 21 22 23
000
FTUS43 KDLH 150500
TAFDLH
TAF
KDLH 150520Z 1506/1606 33006KT P6SM VCSH SCT045
     FM150800 32008KT P6SM SKC
     FM160300 09005KT P6SM BKN080 OVC250=

USA.gov is the U.S. government's official web portal to all federal, state and local government web resources and services.